Location: Tamazert
(32.6352°N, 5.2072°W)
Time: 13:35:55
(UTC+00:00)

Courier 1B Rocket - Visible Passes

Search period start: 03 October 2022 00:00
Search period end: 13 October 2022 00:00
Orbit: 920 x 1202 km, 28.2° (Epoch: 02 October)

Date Brightness Start Highest point End Pass type
(mag) Time Alt. Az. Time Alt. Az. Time Alt. Az.
03 Oct 5.3 19:20:34 10° WSW 19:27:03 50° S 19:29:49 31° ESE visible
03 Oct 6.8 21:13:53 10° W 21:16:11 23° WSW 21:16:11 23° WSW visible
04 Oct 5.7 18:19:32 10° SW 18:26:03 43° SSE 18:32:09 10° E visible
04 Oct 5.1 20:12:42 10° WSW 20:18:55 59° SSW 20:18:55 59° SSW visible
05 Oct 5.3 19:11:31 10° WSW 19:18:13 57° S 19:21:37 28° ESE visible
05 Oct 6.6 21:05:04 10° W 21:07:59 27° WSW 21:07:59 27° WSW visible
06 Oct 5.6 18:10:19 10° WSW 18:17:10 52° S 18:23:33 10° E visible
06 Oct 5.1 20:03:48 10° W 20:10:27 59° S 20:10:41 59° S visible
07 Oct 5.3 19:02:32 10° WSW 19:09:24 61° S 19:13:22 24° ESE visible
07 Oct 6.5 20:56:16 10° W 20:59:44 29° WSW 20:59:44 29° WSW visible
08 Oct 5.2 19:54:56 10° W 20:01:38 55° S 20:02:26 52° SSE visible
09 Oct 5.4 18:53:35 10° W 19:00:34 60° S 19:05:09 20° ESE visible
09 Oct 6.4 20:47:31 10° W 20:51:31 30° WSW 20:51:31 30° WSW visible
10 Oct 5.5 19:46:05 10° W 19:52:45 48° SSW 19:54:15 41° SSE visible
11 Oct 5.6 18:44:40 10° W 18:51:42 56° S 18:57:02 16° ESE visible
11 Oct 6.5 20:38:53 10° W 20:43:24 28° SW 20:43:24 28° SW visible
12 Oct 6.0 19:37:17 10° W 19:43:49 40° SSW 19:46:13 30° SSE visible
